SWR65 KMIA-LSZH

Flight info

Callsign SWR65
Flight time N/A
Altitude 31000
Route FOLZZ3 SUMRS/M080F310 M327 KANUX/M080F330 M327 JIMAC DCT BALOO DCT 39N050W 42N040W/M080F350 45N030W 46N020W 47N015W DCT ETIKI DCT REGHI/N0463F350 DCT OZNOH/N0465F360 DCT BULOX DCT TABOV/N0463F370 DCT RESMI DCT TEPRI DCT POGZI DCT GELTA DCT MANAG DCT PEVIT DCT BLM
Aircraft A343/H-SDE2E3FGHIJ4J5M1RWXY/LB1D1

Departure

Time 2026-05-04 18:47
Airport Miami International Airport (KMIA)

Arrival

Time N/A
Airport Zürich Airport (LSZH)
Time Latitude Longitude Altitude Speed Heading
2026-05-04 18:20 25.79009 -80.27339 21 ft 0 kts 360°
2026-05-04 18:31 25.78991 -80.27339 19 ft 4 kts 360°
2026-05-04 18:32 25.78964 -80.27339 20 ft 3 kts 360°
2026-05-04 18:32 25.78943 -80.27339 20 ft 4 kts 341°
2026-05-04 18:32 25.78931 -80.27331 20 ft 4 kts 292°
2026-05-04 18:32 25.78929 -80.27306 23 ft 4 kts 267°
2026-05-04 18:33 25.78930 -80.27287 20 ft 2 kts 267°
2026-05-04 18:35 25.78929 -80.27297 21 ft 2 kts 267°
2026-05-04 18:36 25.78927 -80.27335 21 ft 8 kts 267°
2026-05-04 18:36 25.78924 -80.27414 22 ft 10 kts 266°
2026-05-04 18:36 25.78915 -80.27480 23 ft 8 kts 258°
2026-05-04 18:36 25.78903 -80.27541 23 ft 7 kts 258°
2026-05-04 18:37 25.78892 -80.27602 24 ft 11 kts 258°
2026-05-04 18:37 25.78882 -80.27680 22 ft 10 kts 264°
2026-05-04 18:37 25.78878 -80.27759 22 ft 12 kts 268°
2026-05-04 18:37 25.78875 -80.27861 24 ft 12 kts 268°
2026-05-04 18:38 25.78881 -80.27952 26 ft 13 kts 287°
2026-05-04 18:38 25.78921 -80.28036 30 ft 13 kts 298°
2026-05-04 18:38 25.78968 -80.28132 29 ft 14 kts 296°
2026-05-04 18:38 25.78975 -80.28227 27 ft 11 kts 269°
2026-05-04 18:39 25.78971 -80.28313 27 ft 13 kts 266°
2026-05-04 18:39 25.78965 -80.28427 23 ft 16 kts 266°
2026-05-04 18:39 25.78960 -80.28543 23 ft 14 kts 267°
2026-05-04 18:39 25.78956 -80.28643 19 ft 12 kts 267°
2026-05-04 18:40 25.78952 -80.28720 17 ft 8 kts 267°
2026-05-04 18:40 25.78950 -80.28786 17 ft 12 kts 267°
2026-05-04 18:40 25.78945 -80.28866 18 ft 8 kts 264°
2026-05-04 18:40 25.78931 -80.28942 19 ft 13 kts 256°
2026-05-04 18:41 25.78907 -80.29054 19 ft 17 kts 262°
2026-05-04 18:41 25.78900 -80.29204 18 ft 21 kts 267°
2026-05-04 18:41 25.78894 -80.29351 23 ft 17 kts 267°
2026-05-04 18:41 25.78888 -80.29485 24 ft 18 kts 267°
2026-05-04 18:42 25.78882 -80.29628 23 ft 18 kts 267°
2026-05-04 18:42 25.78876 -80.29768 23 ft 18 kts 267°
2026-05-04 18:42 25.78870 -80.29898 29 ft 16 kts 267°
2026-05-04 18:42 25.78864 -80.30020 25 ft 16 kts 267°
2026-05-04 18:43 25.78858 -80.30151 25 ft 18 kts 267°
2026-05-04 18:43 25.78853 -80.30283 22 ft 16 kts 268°
2026-05-04 18:43 25.78849 -80.30398 21 ft 15 kts 268°
2026-05-04 18:43 25.78843 -80.30540 20 ft 22 kts 268°
2026-05-04 18:44 25.78837 -80.30730 18 ft 26 kts 268°
2026-05-04 18:44 25.78832 -80.30861 20 ft 24 kts 267°
2026-05-04 18:44 25.78822 -80.31108 24 ft 25 kts 268°
2026-05-04 18:44 25.78814 -80.31295 23 ft 23 kts 267°
2026-05-04 18:45 25.78804 -80.31440 23 ft 15 kts 251°
2026-05-04 18:45 25.78734 -80.31472 22 ft 6 kts 177°
2026-05-04 18:45 25.78724 -80.31472 21 ft 0 kts 177°
2026-05-04 18:45 25.78720 -80.31472 20 ft 4 kts 177°
2026-05-04 18:46 25.78635 -80.31456 19 ft 17 kts 149°
2026-05-04 18:46 25.78618 -80.31395 19 ft 11 kts 89°
2026-05-04 18:46 25.78626 -80.31158 23 ft 55 kts 88°
2026-05-04 18:46 25.78653 -80.30545 22 ft 103 kts 87°
2026-05-04 18:47 25.78694 -80.29603 21 ft 142 kts 88°
2026-05-04 18:47 25.78745 -80.28372 78 ft 170 kts 86°
2026-05-04 18:47 25.78749 -80.27057 492 ft 179 kts 92°
2026-05-04 18:47 25.78546 -80.25647 880 ft 190 kts 101°
2026-05-04 18:48 25.78181 -80.24195 1302 ft 199 kts 102°
2026-05-04 18:48 25.77813 -80.22656 1610 ft 214 kts 100°
2026-05-04 18:48 25.77440 -80.20975 1839 ft 234 kts 98°
2026-05-04 18:48 25.77072 -80.19161 2194 ft 248 kts 99°
2026-05-04 18:49 25.76694 -80.17235 2607 ft 264 kts 103°
2026-05-04 18:49 25.75859 -80.15358 2971 ft 283 kts 120°
2026-05-04 18:49 25.74798 -80.13476 3379 ft 292 kts 116°
2026-05-04 18:49 25.74300 -80.11334 3875 ft 287 kts 83°
2026-05-04 18:50 25.74870 -80.09256 4370 ft 283 kts 52°
2026-05-04 18:50 25.76100 -80.07544 4857 ft 286 kts 46°
2026-05-04 18:50 25.77448 -80.05890 5300 ft 292 kts 44°
2026-05-04 18:50 25.78825 -80.04198 5778 ft 299 kts 46°
2026-05-04 18:51 25.80220 -80.02461 6243 ft 304 kts 45°
2026-05-04 18:51 25.81637 -80.00680 6690 ft 310 kts 46°
2026-05-04 18:51 25.83066 -79.98875 7221 ft 313 kts 46°
2026-05-04 18:51 25.84506 -79.97050 7739 ft 316 kts 46°
2026-05-04 18:52 25.85960 -79.95206 8239 ft 319 kts 46°
2026-05-04 18:52 25.87429 -79.93340 8718 ft 323 kts 46°
2026-05-04 18:52 25.88915 -79.91451 9188 ft 327 kts 46°
2026-05-04 18:52 25.90416 -79.89541 9653 ft 330 kts 45°
2026-05-04 18:53 25.91938 -79.87605 10062 ft 336 kts 46°
2026-05-04 18:53 25.93477 -79.85648 10316 ft 347 kts 46°
2026-05-04 18:53 25.95095 -79.83591 10596 ft 359 kts 46°
2026-05-04 18:53 25.96764 -79.81467 10827 ft 371 kts 46°
2026-05-04 18:54 25.98486 -79.79272 11008 ft 383 kts 46°
2026-05-04 18:54 26.00259 -79.77008 11197 ft 393 kts 46°
2026-05-04 18:54 26.02078 -79.74685 11397 ft 402 kts 46°
2026-05-04 18:54 26.03926 -79.72324 11755 ft 407 kts 46°
2026-05-04 18:55 26.05791 -79.69938 12122 ft 411 kts 46°
2026-05-04 18:55 26.09576 -79.65095 12910 ft 418 kts 46°
2026-05-04 18:55 26.11366 -79.62577 13287 ft 423 kts 51°
2026-05-04 18:56 26.13081 -79.59912 13677 ft 426 kts 52°
2026-05-04 18:56 26.14796 -79.57202 14028 ft 429 kts 52°
2026-05-04 18:56 26.16520 -79.54477 14379 ft 432 kts 52°
2026-05-04 18:56 26.18257 -79.51734 14750 ft 435 kts 52°
2026-05-04 18:57 26.20009 -79.48968 15063 ft 439 kts 52°
2026-05-04 18:57 26.21773 -79.46185 15413 ft 441 kts 52°
2026-05-04 18:57 26.23549 -79.43381 15792 ft 444 kts 52°
2026-05-04 18:57 26.25333 -79.40562 16123 ft 447 kts 52°
2026-05-04 18:58 26.27111 -79.37764 16463 ft 450 kts 51°
2026-05-04 18:58 26.29139 -79.35116 16810 ft 449 kts 40°
2026-05-04 18:58 26.31586 -79.32988 17180 ft 446 kts 30°
2026-05-04 18:58 26.34190 -79.31105 17546 ft 447 kts 28°
2026-05-04 18:59 26.36828 -79.29244 17912 ft 450 kts 28°
2026-05-04 18:59 26.39479 -79.27371 18253 ft 453 kts 28°
2026-05-04 18:59 26.42145 -79.25481 18573 ft 455 kts 28°
2026-05-04 18:59 26.44821 -79.23578 18880 ft 457 kts 28°
2026-05-04 19:00 26.47510 -79.21662 19210 ft 460 kts 28°
2026-05-04 19:00 26.50212 -79.19735 19523 ft 462 kts 28°
2026-05-04 19:00 26.52925 -79.17798 19821 ft 464 kts 28°
2026-05-04 19:00 26.55614 -79.15877 20129 ft 466 kts 28°
2026-05-04 19:01 26.58352 -79.13919 20447 ft 468 kts 28°
2026-05-04 19:01 26.61097 -79.11955 20752 ft 470 kts 28°
2026-05-04 19:01 26.63858 -79.09979 21054 ft 472 kts 28°
2026-05-04 19:01 26.66628 -79.07994 21347 ft 474 kts 28°
2026-05-04 19:02 26.69413 -79.05999 21647 ft 476 kts 28°
2026-05-04 19:02 26.72209 -79.03994 21915 ft 479 kts 28°
2026-05-04 19:02 26.75019 -79.01977 22221 ft 481 kts 28°
2026-05-04 19:02 26.77843 -78.99950 22506 ft 483 kts 28°
2026-05-04 19:03 26.80675 -78.97916 22795 ft 485 kts 29°
2026-05-04 19:03 26.83483 -78.95897 23076 ft 487 kts 29°
2026-05-04 19:03 26.86338 -78.93843 23353 ft 489 kts 29°
2026-05-04 19:03 26.89209 -78.91777 23622 ft 491 kts 29°
2026-05-04 19:04 26.92088 -78.89703 23860 ft 493 kts 28°
2026-05-04 19:04 26.94977 -78.87622 24104 ft 495 kts 28°
2026-05-04 19:04 26.97875 -78.85532 24346 ft 496 kts 28°
2026-05-04 19:04 27.00781 -78.83435 24590 ft 497 kts 28°
2026-05-04 19:05 27.03695 -78.81332 24856 ft 499 kts 28°
2026-05-04 19:05 27.06619 -78.79220 25061 ft 501 kts 28°
2026-05-04 19:05 27.09516 -78.77126 25290 ft 503 kts 28°
2026-05-04 19:05 27.12458 -78.74998 25529 ft 504 kts 28°
2026-05-04 19:06 27.15408 -78.72863 25769 ft 505 kts 28°
2026-05-04 19:06 27.18364 -78.70722 25988 ft 507 kts 27°
2026-05-04 19:06 27.21331 -78.68571 26201 ft 508 kts 27°
2026-05-04 19:06 27.24304 -78.66416 26411 ft 509 kts 27°
2026-05-04 19:07 27.27229 -78.64137 26619 ft 515 kts 34°
2026-05-04 19:07 27.29865 -78.61367 26813 ft 524 kts 44°
2026-05-04 19:07 27.32206 -78.58207 27009 ft 527 kts 47°
2026-05-04 19:07 27.34482 -78.54963 27201 ft 529 kts 48°
2026-05-04 19:08 27.36757 -78.51701 27403 ft 531 kts 48°
2026-05-04 19:08 27.39008 -78.48479 27587 ft 532 kts 47°
2026-05-04 19:08 27.41301 -78.45201 27771 ft 534 kts 47°
2026-05-04 19:08 27.43600 -78.41917 27960 ft 535 kts 47°
2026-05-04 19:09 27.45908 -78.38619 28140 ft 536 kts 47°
2026-05-04 19:09 27.48217 -78.35317 28314 ft 538 kts 47°
2026-05-04 19:09 27.50536 -78.32001 28482 ft 539 kts 47°
2026-05-04 19:09 27.52857 -78.28679 28658 ft 541 kts 47°
2026-05-04 19:10 27.55183 -78.25347 28804 ft 542 kts 47°
2026-05-04 19:10 27.57518 -78.22000 29011 ft 544 kts 47°
2026-05-04 19:10 27.62177 -78.15316 29265 ft 547 kts 47°
2026-05-04 19:11 27.64531 -78.11933 29419 ft 549 kts 47°
2026-05-04 19:11 27.66889 -78.08543 29582 ft 549 kts 47°
2026-05-04 19:11 27.69245 -78.05152 29814 ft 549 kts 47°
2026-05-04 19:11 27.71599 -78.01761 30036 ft 549 kts 47°
2026-05-04 19:12 27.73952 -77.98370 30221 ft 549 kts 47°
2026-05-04 19:12 27.78653 -77.91586 30568 ft 548 kts 47°
2026-05-04 19:12 27.81002 -77.88192 30741 ft 548 kts 47°
2026-05-04 19:13 27.83347 -77.84802 30932 ft 548 kts 47°
2026-05-04 19:13 27.88003 -77.78064 31051 ft 545 kts 47°
2026-05-04 19:14 27.92631 -77.71351 31057 ft 539 kts 47°
2026-05-04 19:14 27.97236 -77.64666 31057 ft 539 kts 47°
2026-05-04 19:15 28.01843 -77.57969 31055 ft 539 kts 47°
2026-05-04 19:15 28.06446 -77.51265 31056 ft 539 kts 47°
2026-05-04 19:16 28.11042 -77.44561 31058 ft 539 kts 47°
2026-05-04 19:16 28.15612 -77.37885 31056 ft 540 kts 47°
2026-05-04 19:17 28.20211 -77.31155 31061 ft 540 kts 47°
2026-05-04 19:17 28.24807 -77.24419 31066 ft 540 kts 47°
2026-05-04 19:18 28.29402 -77.17674 31060 ft 540 kts 47°
2026-05-04 19:18 28.33989 -77.10931 31074 ft 540 kts 47°
2026-05-04 19:19 28.38542 -77.04225 31066 ft 540 kts 47°
2026-05-04 19:19 28.43123 -76.97469 31062 ft 540 kts 47°
2026-05-04 19:20 28.47702 -76.90705 31061 ft 540 kts 47°
2026-05-04 19:20 28.52249 -76.83978 31065 ft 540 kts 48°
2026-05-04 19:21 28.56815 -76.77210 31062 ft 539 kts 48°
2026-05-04 19:21 28.61380 -76.70436 31077 ft 539 kts 48°
2026-05-04 19:22 28.65937 -76.63660 31067 ft 539 kts 48°
2026-05-04 19:22 28.70472 -76.56858 31068 ft 541 kts 51°
2026-05-04 19:23 28.74359 -76.49549 31059 ft 544 kts 57°
2026-05-04 19:23 28.78003 -76.41980 31067 ft 545 kts 58°
2026-05-04 19:24 28.81618 -76.34393 31072 ft 545 kts 58°
2026-05-04 19:24 28.85259 -76.26814 31081 ft 545 kts 58°
2026-05-04 19:25 28.88887 -76.19293 31069 ft 545 kts 58°
2026-05-04 19:25 28.92539 -76.11721 31071 ft 545 kts 58°
2026-05-04 19:26 28.96190 -76.04135 31068 ft 545 kts 58°
2026-05-04 19:26 28.99831 -75.96550 31076 ft 545 kts 58°
2026-05-04 19:27 29.03449 -75.88999 31070 ft 545 kts 58°
2026-05-04 19:27 29.07087 -75.81394 31113 ft 545 kts 58°
2026-05-04 19:28 29.10721 -75.73780 31071 ft 546 kts 58°
2026-05-04 19:28 29.14354 -75.66156 31072 ft 546 kts 58°
2026-05-04 19:29 29.17959 -75.58575 31074 ft 546 kts 58°
2026-05-04 19:29 29.21585 -75.50937 31072 ft 546 kts 58°
2026-05-04 19:30 29.25206 -75.43293 31079 ft 546 kts 58°
2026-05-04 19:30 29.28827 -75.35636 31093 ft 547 kts 58°
2026-05-04 19:31 29.32448 -75.27965 31080 ft 548 kts 58°
2026-05-04 19:31 29.36043 -75.20333 31079 ft 548 kts 58°
2026-05-04 19:32 29.39659 -75.12641 31078 ft 548 kts 58°
2026-05-04 19:32 29.43272 -75.04941 31073 ft 548 kts 59°
2026-05-04 19:33 29.46884 -74.97230 31080 ft 549 kts 59°
2026-05-04 19:33 29.50467 -74.89564 31080 ft 549 kts 59°
2026-05-04 19:34 29.54075 -74.81832 31090 ft 549 kts 59°
2026-05-04 19:34 29.57671 -74.74109 31086 ft 548 kts 59°
2026-05-04 19:35 29.61260 -74.66383 31091 ft 548 kts 59°
2026-05-04 19:35 29.64824 -74.58700 31086 ft 548 kts 59°
2026-05-04 19:36 29.68404 -74.50965 31086 ft 548 kts 59°
2026-05-04 19:36 29.71983 -74.43219 31089 ft 548 kts 59°
2026-05-04 19:37 29.75556 -74.35470 31069 ft 548 kts 59°
2026-05-04 19:37 29.79105 -74.27757 31092 ft 550 kts 59°
2026-05-04 19:38 29.82679 -74.19975 31091 ft 550 kts 59°
2026-05-04 19:38 29.86250 -74.12184 31091 ft 550 kts 60°
2026-05-04 19:39 29.89791 -74.04442 31089 ft 550 kts 60°
2026-05-04 19:39 29.93354 -73.96641 31087 ft 550 kts 60°
2026-05-04 19:40 29.96917 -73.88823 31098 ft 551 kts 60°
2026-05-04 19:40 30.00472 -73.81001 31089 ft 550 kts 60°
2026-05-04 19:41 30.04022 -73.73175 31091 ft 550 kts 60°
2026-05-04 19:41 30.07543 -73.65400 31094 ft 550 kts 60°
2026-05-04 19:42 30.11087 -73.57558 31094 ft 551 kts 61°
2026-05-04 19:42 30.14632 -73.49699 31097 ft 552 kts 61°
2026-05-04 19:43 30.18172 -73.41833 31139 ft 552 kts 61°
2026-05-04 19:43 30.21681 -73.34023 31100 ft 550 kts 61°
2026-05-04 19:44 30.25201 -73.26168 31103 ft 550 kts 62°
2026-05-04 19:44 30.28720 -73.18302 31104 ft 551 kts 62°
2026-05-04 19:45 30.32236 -73.10425 31110 ft 551 kts 62°
2026-05-04 19:45 30.35722 -73.02600 31104 ft 551 kts 62°
2026-05-04 19:46 30.39229 -72.94714 31122 ft 551 kts 62°
2026-05-04 19:46 30.42733 -72.86821 31114 ft 551 kts 63°
2026-05-04 19:47 30.46235 -72.78909 31113 ft 552 kts 63°
2026-05-04 19:47 30.49709 -72.71044 31115 ft 552 kts 63°
2026-05-04 19:48 30.53202 -72.63121 31115 ft 552 kts 63°
2026-05-04 19:48 30.56693 -72.55192 31116 ft 553 kts 63°
2026-05-04 19:49 30.60186 -72.47233 31142 ft 554 kts 64°
2026-05-04 19:49 30.63648 -72.39326 31122 ft 552 kts 64°
2026-05-04 19:50 30.67125 -72.31370 31118 ft 552 kts 64°
2026-05-04 19:50 30.70598 -72.23409 31106 ft 553 kts 64°
2026-05-04 19:51 30.74084 -72.15403 31122 ft 557 kts 64°
2026-05-04 19:51 30.77574 -72.07364 31124 ft 557 kts 64°
2026-05-04 19:52 30.81036 -71.99370 31135 ft 557 kts 64°
2026-05-04 19:52 30.84509 -71.91339 31125 ft 555 kts 64°
2026-05-04 19:53 30.87980 -71.83299 31134 ft 559 kts 65°
2026-05-04 19:53 30.91471 -71.75190 31133 ft 560 kts 65°
2026-05-04 19:54 30.94934 -71.67129 31129 ft 560 kts 65°
2026-05-04 19:54 30.98416 -71.59008 31130 ft 560 kts 65°
2026-05-04 19:55 31.01894 -71.50881 31131 ft 561 kts 66°
2026-05-04 19:55 31.05371 -71.42731 31135 ft 562 kts 66°
2026-05-04 19:56 31.08824 -71.34625 31128 ft 562 kts 66°
2026-05-04 19:56 31.12296 -71.26456 31133 ft 562 kts 66°
2026-05-04 19:57 31.15761 -71.18284 31140 ft 562 kts 67°
2026-05-04 19:57 31.19222 -71.10104 31135 ft 562 kts 67°
2026-05-04 19:58 31.22653 -71.01970 31133 ft 562 kts 66°
2026-05-04 19:58 31.26106 -70.93774 31132 ft 562 kts 66°
2026-05-04 19:59 31.29553 -70.85575 31134 ft 562 kts 68°
2026-05-04 19:59 31.32997 -70.77365 31134 ft 562 kts 68°
2026-05-04 20:00 31.36409 -70.69209 31140 ft 562 kts 68°
2026-05-04 20:00 31.39839 -70.60988 31147 ft 563 kts 68°
2026-05-04 20:01 31.43280 -70.52723 31124 ft 565 kts 68°
2026-05-04 20:01 31.46716 -70.44472 31138 ft 562 kts 68°
2026-05-04 20:02 31.50127 -70.36241 31143 ft 561 kts 68°
2026-05-04 20:02 31.53507 -70.28061 31145 ft 561 kts 68°
2026-05-04 20:03 31.56904 -70.19822 31122 ft 561 kts 68°
2026-05-04 20:03 31.60287 -70.11612 31143 ft 557 kts 68°
2026-05-04 20:04 31.63657 -70.03405 31144 ft 559 kts 68°
2026-05-04 20:04 31.67004 -69.95234 31149 ft 559 kts 68°
2026-05-04 20:05 31.70369 -69.87003 31148 ft 559 kts 68°
2026-05-04 20:05 31.73719 -69.78796 31152 ft 553 kts 68°
2026-05-04 20:06 31.77026 -69.70675 31144 ft 550 kts 68°
2026-05-04 20:06 31.80300 -69.62610 31155 ft 550 kts 68°
2026-05-04 20:07 31.83590 -69.54486 31156 ft 550 kts 68°
2026-05-04 20:07 31.86876 -69.46356 31149 ft 550 kts 69°
2026-05-04 20:08 31.90150 -69.38240 31148 ft 549 kts 69°
2026-05-04 20:08 31.93419 -69.30117 31147 ft 549 kts 69°
2026-05-04 20:09 31.96659 -69.22044 31148 ft 550 kts 69°
2026-05-04 20:09 31.99927 -69.13884 31155 ft 551 kts 69°
2026-05-04 20:10 32.03195 -69.05706 31156 ft 552 kts 69°
2026-05-04 20:10 32.06462 -68.97513 31148 ft 552 kts 69°
2026-05-04 20:11 32.09701 -68.89373 31150 ft 552 kts 69°
2026-05-04 20:11 32.12958 -68.81165 31173 ft 553 kts 69°
2026-05-04 20:12 32.16217 -68.72938 31153 ft 554 kts 69°
2026-05-04 20:12 32.19469 -68.64702 31154 ft 553 kts 69°
2026-05-04 20:13 32.22695 -68.56516 31149 ft 553 kts 69°
2026-05-04 20:13 32.25937 -68.48266 31156 ft 555 kts 69°
2026-05-04 20:14 32.29188 -68.39974 31152 ft 556 kts 69°
2026-05-04 20:14 32.32438 -68.31673 31150 ft 556 kts 69°
2026-05-04 20:15 32.35659 -68.23425 31152 ft 556 kts 69°
2026-05-04 20:15 32.38813 -68.15080 31149 ft 556 kts 71°
2026-05-04 20:16 32.41865 -68.06665 31156 ft 557 kts 71°
2026-05-04 20:16 32.44919 -67.98240 31158 ft 557 kts 71°
2026-05-04 20:17 32.47970 -67.89872 31161 ft 557 kts 71°
2026-05-04 20:17 32.51039 -67.81458 31154 ft 556 kts 71°
2026-05-04 20:18 32.54101 -67.73038 31157 ft 556 kts 71°
2026-05-04 20:18 32.57157 -67.64615 31157 ft 556 kts 71°
2026-05-04 20:19 32.60206 -67.56188 31157 ft 556 kts 71°
2026-05-04 20:19 32.63230 -67.47806 31151 ft 558 kts 71°
2026-05-04 20:20 32.66284 -67.39323 31156 ft 559 kts 71°
2026-05-04 20:20 32.69329 -67.30843 31157 ft 558 kts 71°
2026-05-04 20:21 32.72368 -67.22360 31157 ft 558 kts 71°
2026-05-04 20:21 32.76904 -67.09650 31161 ft 561 kts 71°
2026-05-04 20:22 32.79942 -67.01115 31204 ft 561 kts 71°
2026-05-04 20:22 32.82973 -66.92584 31157 ft 559 kts 72°
2026-05-04 20:23 32.85991 -66.84057 31157 ft 560 kts 71°
2026-05-04 20:23 32.88990 -66.75557 31162 ft 562 kts 71°
2026-05-04 20:24 32.92010 -66.66981 31162 ft 562 kts 71°
2026-05-04 20:24 32.95025 -66.58402 31162 ft 562 kts 71°
2026-05-04 20:25 32.98034 -66.49814 31166 ft 563 kts 71°
2026-05-04 20:25 33.01021 -66.41263 31166 ft 563 kts 72°
2026-05-04 20:26 33.04026 -66.32642 31164 ft 563 kts 72°
2026-05-04 20:26 33.07024 -66.24018 31142 ft 563 kts 71°
2026-05-04 20:27 33.09997 -66.15441 31160 ft 563 kts 71°
2026-05-04 20:27 33.12984 -66.06803 31169 ft 564 kts 72°
2026-05-04 20:28 33.15970 -65.98144 31168 ft 564 kts 72°
2026-05-04 20:28 33.18950 -65.89476 31161 ft 564 kts 71°
2026-05-04 20:29 33.21925 -65.80799 31165 ft 564 kts 72°
2026-05-04 20:29 33.24874 -65.72180 31167 ft 564 kts 72°
2026-05-04 20:30 33.27836 -65.63497 31178 ft 564 kts 72°
2026-05-04 20:30 33.30793 -65.54802 31165 ft 565 kts 72°
2026-05-04 20:31 33.33743 -65.46108 31169 ft 564 kts 72°
2026-05-04 20:31 33.36687 -65.37407 31170 ft 564 kts 72°
2026-05-04 20:32 33.39608 -65.28746 31220 ft 567 kts 72°
2026-05-04 20:32 33.42567 -65.19946 31351 ft 572 kts 72°
2026-05-04 20:33 33.44053 -65.15520 31455 ft 574 kts 72°
2026-05-04 20:33 33.45540 -65.11087 31598 ft 574 kts 72°
2026-05-04 20:33 33.47027 -65.06647 31741 ft 575 kts 72°
2026-05-04 20:33 33.48514 -65.02203 31880 ft 575 kts 72°
2026-05-04 20:34 33.49980 -64.97812 32011 ft 575 kts 72°
2026-05-04 20:34 33.51463 -64.93366 32196 ft 574 kts 71°
2026-05-04 20:34 33.52943 -64.88924 32353 ft 574 kts 71°
2026-05-04 20:34 33.54421 -64.84479 32474 ft 575 kts 71°
2026-05-04 20:35 33.55900 -64.80024 32618 ft 575 kts 71°
2026-05-04 20:35 33.57377 -64.75568 32726 ft 576 kts 72°
2026-05-04 20:35 33.60336 -64.66620 32967 ft 577 kts 72°
2026-05-04 20:36 33.61793 -64.62207 33094 ft 577 kts 72°
2026-05-04 20:36 33.63266 -64.57741 33165 ft 573 kts 72°
2026-05-04 20:36 33.66154 -64.48981 33170 ft 559 kts 72°
2026-05-04 20:37 33.69000 -64.40299 33173 ft 559 kts 72°
2026-05-04 20:37 33.71839 -64.31609 33176 ft 559 kts 72°
2026-05-04 20:38 33.74659 -64.22959 33173 ft 560 kts 72°
2026-05-04 20:38 33.77496 -64.14239 33173 ft 560 kts 72°
2026-05-04 20:39 33.80328 -64.05509 33176 ft 560 kts 72°
2026-05-04 20:39 33.83151 -63.96782 33173 ft 560 kts 72°
2026-05-04 20:40 33.85966 -63.88055 33182 ft 560 kts 72°
2026-05-04 20:40 33.88765 -63.79351 33173 ft 562 kts 72°
2026-05-04 20:41 33.91579 -63.70571 33169 ft 562 kts 72°
2026-05-04 20:41 33.94384 -63.61803 33175 ft 561 kts 72°
2026-05-04 20:42 33.97178 -63.53040 33175 ft 561 kts 72°
2026-05-04 20:42 33.99951 -63.44319 33181 ft 562 kts 72°
2026-05-04 20:43 34.02742 -63.35512 33175 ft 562 kts 72°
2026-05-04 20:43 34.05528 -63.26702 33176 ft 562 kts 72°
2026-05-04 20:44 34.08304 -63.17896 33176 ft 562 kts 72°
2026-05-04 20:44 34.11054 -63.09146 33171 ft 561 kts 72°
2026-05-04 20:45 34.13809 -63.00355 33177 ft 560 kts 73°
2026-05-04 20:45 34.16565 -62.91531 33176 ft 562 kts 73°
2026-05-04 20:46 34.19319 -62.82692 33159 ft 562 kts 73°
2026-05-04 20:46 34.22041 -62.73930 33175 ft 560 kts 72°
2026-05-04 20:47 34.24768 -62.65129 33178 ft 559 kts 72°
2026-05-04 20:47 34.27487 -62.56320 33174 ft 561 kts 73°
2026-05-04 20:48 34.30210 -62.47471 33175 ft 561 kts 72°
2026-05-04 20:48 34.32904 -62.38697 33175 ft 560 kts 72°
2026-05-04 20:49 34.35606 -62.29868 33175 ft 559 kts 73°
2026-05-04 20:49 34.38301 -62.21035 33188 ft 559 kts 73°
2026-05-04 20:50 34.41260 -62.12314 33183 ft 562 kts 64°
2026-05-04 20:50 34.44915 -62.03935 33177 ft 563 kts 63°
2026-05-04 20:51 34.48662 -61.95675 33181 ft 563 kts 62°
2026-05-04 20:51 34.52441 -61.87361 33219 ft 562 kts 62°
2026-05-04 20:52 34.56196 -61.79046 33181 ft 563 kts 63°
2026-05-04 20:52 34.59944 -61.70700 33181 ft 563 kts 63°
2026-05-04 20:53 34.63660 -61.62401 33181 ft 563 kts 63°
2026-05-04 20:53 34.67397 -61.54036 33211 ft 563 kts 63°
2026-05-04 20:54 34.71141 -61.45637 33182 ft 567 kts 63°
2026-05-04 20:54 34.74257 -61.38631 33182 ft 567 kts 63°
2026-05-04 20:55 34.78003 -61.30188 33174 ft 566 kts 63°
2026-05-04 20:55 34.82324 -61.20428 33183 ft 562 kts 63°
2026-05-04 20:56 34.86024 -61.12045 33186 ft 562 kts 63°
2026-05-04 20:56 34.89094 -61.05074 33193 ft 562 kts 63°
2026-05-04 20:57 34.92781 -60.96681 33186 ft 561 kts 63°
2026-05-04 20:57 34.97056 -60.86929 33195 ft 562 kts 63°
2026-05-04 20:58 35.00138 -60.79878 33192 ft 562 kts 63°
2026-05-04 20:58 35.03785 -60.71513 33188 ft 562 kts 63°
2026-05-04 20:59 35.07450 -60.63088 33194 ft 562 kts 63°
2026-05-04 20:59 35.11113 -60.54654 33200 ft 562 kts 63°
2026-05-04 21:00 35.14775 -60.46195 33197 ft 564 kts 63°
2026-05-04 21:00 35.18409 -60.37779 33200 ft 563 kts 63°
2026-05-04 21:01 35.22060 -60.29304 33198 ft 563 kts 63°
2026-05-04 21:01 35.25707 -60.20822 33198 ft 564 kts 64°
2026-05-04 21:02 35.29350 -60.12321 33192 ft 564 kts 63°
2026-05-04 21:02 35.32962 -60.03870 33197 ft 564 kts 63°
2026-05-04 21:03 35.36590 -59.95361 33197 ft 564 kts 63°
2026-05-04 21:03 35.40219 -59.86830 33181 ft 565 kts 63°
2026-05-04 21:04 35.43845 -59.78281 33197 ft 565 kts 63°
2026-05-04 21:04 35.47465 -59.69729 33197 ft 565 kts 63°
2026-05-04 21:05 35.51052 -59.61231 33211 ft 565 kts 64°
2026-05-04 21:05 35.54663 -59.52655 33200 ft 565 kts 63°
2026-05-04 21:06 35.58266 -59.44074 33205 ft 565 kts 63°
2026-05-04 21:06 35.61862 -59.35489 33205 ft 565 kts 63°
2026-05-04 21:07 35.65428 -59.26954 33206 ft 565 kts 63°
2026-05-04 21:07 35.69013 -59.18351 33206 ft 565 kts 64°
2026-05-04 21:08 35.72592 -59.09739 33203 ft 565 kts 64°
2026-05-04 21:08 35.76164 -59.01121 33219 ft 565 kts 64°
2026-05-04 21:09 35.79728 -58.92500 33200 ft 565 kts 64°
2026-05-04 21:09 35.83264 -58.83925 33200 ft 565 kts 64°
2026-05-04 21:10 35.86819 -58.75282 33203 ft 565 kts 64°
2026-05-04 21:10 35.90367 -58.66632 33206 ft 566 kts 64°
2026-05-04 21:11 35.93913 -58.57964 33201 ft 566 kts 64°
2026-05-04 21:11 35.97432 -58.49339 33199 ft 566 kts 64°
2026-05-04 21:12 36.00965 -58.40657 33200 ft 565 kts 64°
2026-05-04 21:12 36.04490 -58.31972 33190 ft 566 kts 64°
2026-05-04 21:13 36.08013 -58.23268 33209 ft 566 kts 64°
2026-05-04 21:13 36.11530 -58.14555 33207 ft 565 kts 64°
2026-05-04 21:14 36.15008 -58.05917 33208 ft 564 kts 64°
2026-05-04 21:14 36.18499 -57.97223 33210 ft 564 kts 64°
2026-05-04 21:15 36.21984 -57.88519 33205 ft 564 kts 64°
2026-05-04 21:15 36.25451 -57.79836 33243 ft 562 kts 65°
2026-05-04 21:16 36.28915 -57.71139 33206 ft 564 kts 65°
2026-05-04 21:16 36.32356 -57.62476 33198 ft 564 kts 65°
2026-05-04 21:17 36.35809 -57.53759 33206 ft 563 kts 65°
2026-05-04 21:17 36.39254 -57.45040 33207 ft 563 kts 65°
2026-05-04 21:18 36.42701 -57.36291 33193 ft 564 kts 65°
2026-05-04 21:18 36.46116 -57.27599 33208 ft 564 kts 65°
2026-05-04 21:19 36.49547 -57.18842 33225 ft 563 kts 65°
2026-05-04 21:19 36.52971 -57.10078 33190 ft 564 kts 65°
2026-05-04 21:20 36.56392 -57.01300 33208 ft 563 kts 65°
2026-05-04 21:20 36.57684 -56.97979 33209 ft 563 kts 65°
2026-05-04 21:21 36.61090 -56.89203 33219 ft 563 kts 65°
2026-05-04 21:21 36.64494 -56.80410 33204 ft 564 kts 65°
2026-05-04 21:22 36.67887 -56.71623 33208 ft 563 kts 65°
2026-05-04 21:22 36.71247 -56.62892 33208 ft 562 kts 65°
2026-05-04 21:23 36.74625 -56.54095 33206 ft 563 kts 65°
2026-05-04 21:23 36.77995 -56.45291 33208 ft 562 kts 65°
2026-05-04 21:24 36.81355 -56.36490 33211 ft 562 kts 65°
2026-05-04 21:24 36.84686 -56.27740 33208 ft 562 kts 65°
2026-05-04 21:25 36.88032 -56.18925 33211 ft 561 kts 65°
2026-05-04 21:25 36.91369 -56.10109 33211 ft 561 kts 65°
2026-05-04 21:26 36.94699 -56.01288 33230 ft 561 kts 65°
2026-05-04 21:26 36.98008 -55.92497 33213 ft 563 kts 65°
2026-05-04 21:27 37.01339 -55.83623 33210 ft 564 kts 66°
2026-05-04 21:27 37.04663 -55.74741 33208 ft 563 kts 65°
2026-05-04 21:28 37.07976 -55.65865 33214 ft 563 kts 66°
2026-05-04 21:28 37.11287 -55.56968 33211 ft 563 kts 66°
2026-05-04 21:29 37.14566 -55.48130 33208 ft 563 kts 65°
2026-05-04 21:29 37.17856 -55.39237 33212 ft 563 kts 66°
2026-05-04 21:30 37.21145 -55.30321 33214 ft 563 kts 66°
2026-05-04 21:30 37.24427 -55.21401 33212 ft 563 kts 65°
2026-05-04 21:31 37.29305 -55.08091 33213 ft 562 kts 66°
2026-05-04 21:32 37.32561 -54.99174 33198 ft 561 kts 65°
2026-05-04 21:32 37.35806 -54.90264 33213 ft 560 kts 66°
2026-05-04 21:33 37.39022 -54.81406 33213 ft 562 kts 66°
2026-05-04 21:33 37.42259 -54.72461 33201 ft 562 kts 66°
2026-05-04 21:34 37.45484 -54.63529 33211 ft 560 kts 66°
2026-05-04 21:34 37.48697 -54.54602 33212 ft 561 kts 66°
2026-05-04 21:35 37.51887 -54.45707 33208 ft 561 kts 66°
2026-05-04 21:35 37.55085 -54.36769 33211 ft 559 kts 66°
2026-05-04 21:36 37.58276 -54.27825 33213 ft 560 kts 66°
2026-05-04 21:36 37.61462 -54.18866 33210 ft 560 kts 66°
2026-05-04 21:37 37.64616 -54.09971 33215 ft 559 kts 66°
2026-05-04 21:37 37.67782 -54.01017 33216 ft 559 kts 66°
2026-05-04 21:38 37.70944 -53.92045 33210 ft 560 kts 66°
2026-05-04 21:38 37.74103 -53.83055 33212 ft 560 kts 66°
2026-05-04 21:39 37.77253 -53.74063 33200 ft 560 kts 66°
2026-05-04 21:39 37.80374 -53.65128 33208 ft 559 kts 66°
2026-05-04 21:40 37.83507 -53.56133 33208 ft 559 kts 66°
2026-05-04 21:40 37.86633 -53.47129 33215 ft 559 kts 67°
2026-05-04 21:41 37.89757 -53.38100 33213 ft 560 kts 67°
2026-05-04 21:41 37.92856 -53.29118 33208 ft 560 kts 67°
2026-05-04 21:42 37.95970 -53.20068 33212 ft 560 kts 67°
2026-05-04 21:42 37.99076 -53.11012 33208 ft 561 kts 67°
2026-05-04 21:43 38.02177 -53.01941 33209 ft 561 kts 67°
2026-05-04 21:43 38.05269 -52.92870 33212 ft 559 kts 67°
2026-05-04 21:44 38.08328 -52.83869 33208 ft 559 kts 68°
2026-05-04 21:44 38.11402 -52.74793 33187 ft 559 kts 67°
2026-05-04 21:45 38.14462 -52.65733 33213 ft 557 kts 68°
2026-05-04 21:45 38.17512 -52.56671 33208 ft 558 kts 68°
2026-05-04 21:46 38.20537 -52.47656 33205 ft 557 kts 67°
2026-05-04 21:46 38.23561 -52.38618 33208 ft 555 kts 68°
2026-05-04 21:47 38.26575 -52.29584 33211 ft 555 kts 68°
2026-05-04 21:47 38.29577 -52.20553 33213 ft 553 kts 67°
2026-05-04 21:48 38.32546 -52.11596 33214 ft 553 kts 68°
2026-05-04 21:48 38.35527 -52.02574 33213 ft 553 kts 68°
2026-05-04 21:49 38.38501 -51.93543 33208 ft 553 kts 68°
2026-05-04 21:49 38.41471 -51.84497 33208 ft 554 kts 68°
2026-05-04 21:50 38.44443 -51.75417 33209 ft 555 kts 68°
2026-05-04 21:50 38.47384 -51.66399 33208 ft 553 kts 68°
2026-05-04 21:51 38.50330 -51.57341 33209 ft 553 kts 68°
2026-05-04 21:51 38.53273 -51.48262 33208 ft 553 kts 68°
2026-05-04 21:52 38.56206 -51.39187 33208 ft 553 kts 68°
2026-05-04 21:52 38.59133 -51.30099 33208 ft 552 kts 68°
2026-05-04 21:53 38.62030 -51.21077 33208 ft 552 kts 68°
2026-05-04 21:53 38.64940 -51.11985 33208 ft 552 kts 68°
2026-05-04 21:54 38.67838 -51.02900 33208 ft 551 kts 68°
2026-05-04 21:54 38.70708 -50.93875 33208 ft 551 kts 68°